Wind_Speed
9 9 8 9 9 9 9 10 10 10 10 10 10 9 9 9 8 7 5 4 3 2 2 2 2 3 5 6 9 12 14 15 16 18 20 20 21 22 22 23 24 26 27
10 10 9 9 8 8 8 8 9 9 9 9 9 9 8 8 7 7 6 4 3 2 1 1 1 2 3 5 7 10 13 14 15 17 19 20 21 22 22 22 23 25 27
12 11 10 9 8 8 7 7 8 8 8 8 8 8 8 7 7 6 5 4 3 2 1 0 1 2 3 5 6 8 10 12 14 16 17 18 20 21 22 22 23 24 26
14 13 12 11 9 8 7 7 7 7 7 8 8 8 7 7 6 6 5 4 3 2 2 1 2 2 3 4 5 7 9 11 12 14 15 16 18 19 20 21 22 23 25
16 15 14 13 11 10 9 8 7 7 7 7 7 7 7 6 6 5 5 4 3 3 2 2 3 3 3 4 5 6 8 9 11 13 14 14 16 18 19 20 21 22 23
18 17 17 15 14 12 11 10 9 8 7 6 6 6 6 6 5 5 5 5 4 4 3 3 3 4 4 5 5 6 7 9 11 12 14 15 16 17 19 20 21 22 23
20 20 19 18 17 15 14 12 11 10 9 8 7 7 6 6 5 5 5 5 5 4 4 4 4 4 5 5 6 7 8 9 11 12 13 14 16 17 18 20 21 22 23
22 22 22 21 20 18 16 15 14 13 11 10 9 8 7 6 6 6 6 6 5 5 5 5 5 6 6 6 7 8 9 10 11 12 14 15 16 17 19 20 21 22 23
24 24 24 24 23 21 20 18 17 16 14 13 11 10 9 8 7 7 7 7 7 6 6 7 7 7 8 8 8 9 10 11 12 13 14 15 17 18 18 20 21 22 23
26 26 26 26 25 24 23 22 20 19 17 16 14 13 12 11 10 9 9 9 9 9 8 9 9 9 9 10 10 11 11 12 13 14 15 16 17 18 19 20 21 23 24
29 28 28 28 28 27 26 25 24 22 21 19 18 16 15 14 13 12 12 11 11 11 11 11 11 11 11 12 12 13 13 14 15 16 16 17 18 19 20 20 22 23 24
31 31 30 30 30 30 29 28 27 26 24 23 21 20 18 17 16 16 15 14 14 13 13 13 13 13 13 13 14 14 14 15 16 16 17 18 19 20 20 21 22 23 24
34 33 33 33 33 32 32 31 30 29 28 26 25 23 22 21 20 19 18 17 17 16 16 15 15 15 15 15 15 15 16 16 17 18 18 19 20 21 22 23 24 25 26
37 36 36 35 35 35 34 34 33 32 30 29 28 27 25 24 23 22 21 20 19 19 19 18 18 18 17 17 17 17 18 18 19 20 20 21 21 22 23 24 25 26 27
40 39 39 38 37 37 37 36 35 34 33 32 31 30 28 27 26 25 24 23 23 22 22 21 21 20 20 20 19 19 20 20 21 22 22 23 24 25 26 26 27 28 29
44 43 42 41 40 40 39 39 38 37 36 35 34 32 31 30 29 28 27 26 25 25 24 24 23 23 22 22 22 22 22 23 23 24 24 25 26 27 27 28 29 30 31
48 47 46 45 44 43 42 41 40 39 38 37 36 35 34 32 31 30 29 29 28 27 26 26 25 25 25 25 25 25 25 25 25 26 26 27 28 28 29 30 31 32 33
52 52 50 48 47 46 45 44 43 42 41 40 39 38 36 35 34 33 31 31 30 29 28 28 27 27 27 27 27 27 27 27 28 28 28 29 30 30 31 32 33 34 35
55 54 54 52 50 49 48 47 45 44 43 42 41 40 38 37 36 34 33 32 31 30 30 29 29 29 29 29 29 29 29 29 29 30 30 31 31 32 33 34 35 36 37
56 56 56 55 53 52 51 49 48 47 45 44 43 41 40 39 37 36 35 34 33 32 31 31 30 30 30 30 30 30 30 31 31 31 32 33 33 34 35 36 37 38 39
56 56 57 58 56 54 53 51 50 49 47 46 45 43 42 41 39 38 36 35 34 33 32 31 31 31 31 31 31 31 31 32 32 33 33 34 35 36 37 38 39 40 41
55 55 57 58 58 56 55 53 52 51 50 48 46 46 44 43 41 39 38 36 35 34 33 32 32 31 31 32 32 32 32 33 33 34 34 35 37 38 39 40 41 42 43
54 54 56 57 57 58 57 55 54 52 51 50 48 47 45 44 42 40 39 37 36 35 34 33 32 32 32 32 33 33 33 34 35 35 36 37 39 40 41 41 42 43 45
52 53 55 56 57 58 58 57 56 55 53 52 50 49 46 44 43 42 40 39 38 36 35 34 34 33 33 33 33 34 34 35 36 36 37 39 40 41 42 43 44 45 46
50 51 52 54 55 56 57 57 57 57 55 53 51 50 49 46 44 43 42 40 39 37 36 35 34 34 34 34 34 34 35 36 36 37 39 40 41 42 43 45 46 47 48
47 49 50 52 53 54 55 56 56 56 56 55 53 51 50 49 47 45 43 41 40 39 38 36 35 35 35 35 35 36 36 37 37 38 39 41 42 43 44 46 47 48 49
Wind_Direction
291 298 308 322 332 341 348 355 358 0 4 6 9 13 17 21 26 28 34 42 57 88 122 148 166 196 210 211 209 210 213 217 221 222 222 225 229 230 231 232 234 237 239
281 286 295 307 319 329 338 347 353 358 0 2 5 8 11 13 15 20 25 28 30 46 82 151 191 212 222 218 216 213 214 217 221 224 227 229 231 233 234 236 237 240 242
274 277 282 292 303 315 324 333 343 351 355 357 359 2 3 1 1 3 5 11 15 14 7 326 243 234 228 224 224 220 218 220 224 227 229 232 234 236 237 239 241 243 245
269 270 273 279 287 296 307 317 328 338 344 346 349 353 356 355 355 355 354 354 348 340 323 291 271 260 247 233 230 228 226 228 231 232 233 234 234 237 240 242 245 247 248
265 265 266 270 274 279 286 295 306 316 325 333 339 344 348 350 349 349 349 346 343 330 307 284 273 272 270 258 248 242 238 239 238 238 240 240 241 243 245 247 250 251 252
263 262 262 263 266 268 272 278 286 294 301 310 322 330 335 337 337 336 335 334 333 327 314 296 282 275 268 259 257 253 250 248 246 246 249 251 251 251 251 253 254 255 256
262 261 260 260 260 262 264 267 272 277 282 290 299 307 315 319 320 318 317 317 315 312 308 299 291 285 278 269 266 264 261 258 256 255 255 257 257 257 258 258 259 260 260
263 260 258 257 257 257 259 261 264 267 271 275 281 287 294 300 305 307 308 308 307 303 302 303 299 292 287 281 276 273 271 268 264 263 262 262 262 262 263 264 265 265 265
264 260 258 256 256 255 256 257 259 261 263 265 269 273 278 284 288 293 296 298 298 296 295 297 299 297 293 289 285 281 279 276 272 269 268 267 267 267 267 268 268 267 268
263 261 259 257 256 255 254 255 256 257 258 260 263 266 270 274 278 283 286 288 289 289 290 292 293 293 292 290 288 286 284 282 279 276 275 274 273 272 272 272 272 271 271
262 261 260 257 255 254 254 254 254 255 256 257 259 261 264 268 271 275 278 280 282 283 285 287 288 289 290 289 288 287 286 285 283 282 280 278 278 277 276 276 276 276 275
261 260 258 257 255 254 253 253 253 254 254 255 256 258 260 263 266 269 272 275 277 279 282 285 287 288 289 289 289 289 288 287 286 285 284 282 281 280 279 278 277 277 278
260 258 256 255 254 253 252 252 252 253 253 253 254 256 257 260 263 265 268 271 274 277 278 281 284 286 287 289 289 290 289 289 288 287 287 286 285 284 283 282 281 281 281
259 257 255 253 253 252 251 251 251 251 252 253 253 254 255 257 260 263 266 268 271 274 276 278 280 282 284 286 288 289 290 290 290 290 289 288 287 287 286 286 286 285 284
259 256 254 253 252 251 250 250 250 250 251 251 252 253 254 256 258 260 263 266 268 271 274 276 278 280 281 283 285 287 288 290 290 291 290 289 289 288 288 288 287 287 286
258 256 254 252 251 250 249 249 249 249 249 249 251 252 252 254 256 259 261 264 266 269 271 274 276 278 279 281 283 284 286 288 290 291 291 291 290 290 290 290 289 288 288
257 255 253 252 250 249 248 248 248 247 248 248 249 250 251 252 254 257 260 262 264 267 270 272 275 276 278 279 281 283 285 287 289 291 291 291 291 291 291 291 291 290 289
255 253 251 250 249 248 247 247 247 246 246 246 247 248 249 250 253 255 258 260 263 266 269 271 273 275 277 278 280 282 284 285 287 289 290 291 291 292 292 292 292 292 291
254 252 250 248 247 246 246 245 245 245 245 245 245 246 248 249 251 253 256 259 261 264 267 269 272 274 276 278 280 281 283 285 286 288 290 291 292 292 292 293 293 293 292
252 250 248 247 246 244 244 244 244 244 244 244 244 245 246 247 249 251 253 256 259 262 265 268 271 273 275 278 279 281 283 284 286 288 290 292 292 293 293 294 294 293 293
250 248 247 245 243 242 242 242 242 242 242 242 243 243 245 246 247 249 251 254 258 261 264 266 269 272 275 278 280 283 284 285 287 289 291 292 293 294 295 295 294 294 294
249 247 245 244 242 241 240 239 239 239 239 240 241 242 243 244 246 248 250 253 256 259 262 265 268 271 275 278 281 283 285 286 288 289 291 293 294 295 296 296 295 295 295
250 247 244 243 241 240 239 237 237 236 237 237 239 241 242 243 245 247 249 251 254 257 260 263 267 270 274 278 280 283 285 287 288 290 292 293 295 296 297 297 297 297 297
250 247 244 242 240 239 238 236 235 235 234 235 236 238 240 242 243 245 247 249 252 255 259 262 265 269 273 277 280 283 285 287 289 290 292 294 296 297 298 298 298 298 298
252 249 245 241 240 239 236 235 234 233 233 233 234 236 237 239 241 243 245 248 251 254 257 261 264 268 273 277 280 283 286 288 290 291 293 295 297 298 298 299 300 300 300
253 249 245 241 239 238 236 234 232 231 231 231 232 233 234 236 238 241 244 246 248 252 255 260 264 268 273 277 280 283 286 288 290 292 293 295 298 299 299 300 301 301 302
Height
5814 5813 5812 5810 5808 5806 5804 5802 5799 5797 5795 5793 5791 5789 5787 5786 5784 5783 5782 5781 5780 5780 5780 5780 5781 5781 5782 5783 5784 5786 5788 5790 5792 5795 5797 5799 5802 5804 5807 5809 5812 5814 5816
5812 5811 5810 5808 5807 5805 5803 5801 5799 5797 5795 5793 5791 5789 5788 5786 5785 5784 5783 5782 5781 5780 5780 5780 5780 5780 5781 5781 5782 5783 5785 5787 5789 5791 5793 5795 5797 5800 5802 5804 5806 5808 5810
5809 5808 5807 5806 5805 5803 5801 5800 5798 5796 5795 5793 5791 5789 5788 5786 5785 5784 5783 5782 5781 5780 5780 5780 5780 5780 5780 5780 5781 5781 5783 5784 5786 5787 5789 5791 5793 5795 5797 5799 5801 5803 5804
5805 5805 5804 5803 5802 5801 5800 5798 5797 5795 5794 5792 5790 5789 5787 5786 5785 5784 5783 5782 5781 5780 5780 5779 5779 5779 5779 5779 5779 5780 5781 5782 5783 5784 5785 5787 5788 5790 5792 5794 5795 5797 5798
5801 5801 5801 5800 5799 5798 5797 5796 5795 5794 5792 5791 5789 5788 5787 5785 5784 5783 5782 5781 5780 5780 5779 5779 5779 5778 5778 5778 5778 5778 5779 5779 5780 5781 5782 5783 5785 5786 5787 5788 5790 5791 5792
5797 5797 5796 5796 5795 5795 5794 5793 5792 5792 5790 5789 5788 5787 5785 5784 5783 5782 5781 5780 5780 5779 5778 5778 5777 5777 5777 5776 5776 5776 5776 5777 5777 5778 5779 5780 5780 5781 5782 5783 5784 5785 5785
5791 5791 5791 5791 5791 5791 5790 5790 5789 5788 5788 5787 5786 5785 5784 5783 5782 5781 5780 5779 5778 5778 5777 5776 5776 5775 5775 5775 5774 5774 5774 5774 5775 5775 5775 5776 5776 5777 5777 5778 5778 5778 5778
5786 5786 5786 5786 5786 5786 5786 5785 5785 5785 5784 5784 5783 5782 5781 5781 5780 5779 5778 5777 5777 5776 5775 5775 5774 5773 5773 5772 5772 5772 5771 5771 5771 5771 5771 5772 5772 5772 5772 5772 5771 5771 5771
5779 5779 5779 5779 5780 5780 5780 5780 5780 5780 5780 5780 5779 5779 5778 5778 5777 5776 5776 5775 5774 5774 5773 5772 5772 5771 5770 5770 5769 5769 5768 5768 5768 5767 5767 5767 5767 5766 5766 5766 5765 5765 5764
5772 5772 5772 5773 5773 5774 5774 5774 5774 5775 5775 5775 5775 5775 5774 5774 5774 5773 5773 5772 5771 5771 5770 5770 5769 5768 5767 5766 5766 5765 5764 5764 5763 5763 5762 5762 5761 5761 5760 5760 5759 5758 5757
5764 5764 5764 5765 5765 5766 5767 5767 5768 5768 5769 5769 5770 5769 5769 5769 5769 5769 5769 5768 5768 5767 5767 5766 5765 5764 5764 5763 5762 5761 5760 5759 5759 5758 5757 5756 5756 5755 5754 5753 5752 5751 5750
5755 5756 5756 5756 5757 5757 5758 5759 5760 5761 5762 5763 5763 5763 5764 5764 5764 5764 5764 5764 5763 5763 5762 5761 5761 5760 5759 5758 5757 5756 5755 5754 5753 5753 5751 5750 5750 5749 5748 5747 5746 5744 5743
5745 5746 5746 5747 5747 5748 5749 5750 5752 5753 5754 5755 5756 5756 5757 5757 5758 5758 5758 5758 5758 5757 5757 5756 5755 5755 5754 5753 5752 5751 5750 5749 5748 5747 5746 5744 5743 5742 5741 5739 5738 5737 5735
5734 5735 5735 5736 5737 5738 5739 5740 5742 5743 5745 5746 5747 5748 5749 5750 5750 5751 5751 5751 5751 5751 5751 5750 5749 5749 5748 5747 5746 5745 5744 5743 5742 5740 5739 5738 5736 5735 5733 5732 5730 5728 5727
5721 5722 5723 5724 5725 5727 5728 5730 5731 5733 5735 5736 5738 5739 5740 5741 5742 5743 5743 5744 5744 5744 5743 5743 5743 5742 5741 5741 5740 5739 5738 5736 5735 5733 5732 5731 5729 5727 5726 5724 5722 5720 5718
5706 5708 5709 5711 5713 5714 5716 5718 5719 5722 5723 5725 5727 5729 5730 5732 5733 5734 5734 5735 5735 5736 5736 5735 5735 5735 5734 5733 5733 5732 5730 5729 5728 5726 5724 5723 5721 5719 5717 5715 5713 5711 5709
5690 5692 5694 5696 5698 5701 5703 5705 5707 5709 5711 5713 5716 5718 5720 5721 5723 5724 5725 5726 5726 5727 5727 5727 5727 5726 5726 5725 5725 5724 5722 5721 5719 5718 5716 5714 5712 5710 5708 5706 5704 5701 5699
5672 5674 5677 5680 5683 5685 5688 5691 5694 5696 5698 5701 5703 5706 5708 5710 5712 5713 5714 5716 5717 5717 5718 5718 5718 5718 5717 5717 5716 5715 5714 5712 5711 5709 5707 5705 5703 5701 5698 5696 5693 5691 5688
5652 5655 5659 5662 5666 5669 5672 5676 5679 5682 5685 5688 5690 5693 5696 5698 5700 5702 5703 5705 5706 5707 5708 5708 5708 5708 5708 5707 5706 5705 5704 5703 5701 5700 5698 5695 5693 5691 5688 5686 5683 5680 5677
5632 5635 5639 5643 5648 5652 5656 5660 5664 5667 5671 5674 5677 5681 5683 5685 5688 5690 5692 5694 5695 5696 5697 5698 5698 5698 5698 5697 5696 5696 5694 5693 5691 5690 5687 5685 5683 5680 5678 5675 5672 5668 5665
5611 5615 5618 5623 5628 5633 5638 5643 5648 5652 5656 5660 5664 5667 5670 5673 5675 5678 5680 5682 5684 5685 5686 5687 5687 5687 5687 5687 5686 5685 5684 5683 5681 5679 5677 5675 5672 5669 5666 5663 5660 5656 5652
5589 5594 5598 5603 5608 5614 5619 5625 5630 5635 5640 5645 5649 5652 5655 5659 5662 5665 5668 5670 5672 5673 5675 5675 5676 5676 5676 5676 5676 5675 5673 5672 5670 5668 5666 5663 5661 5658 5654 5651 5647 5643 5639
5568 5573 5577 5582 5588 5594 5600 5606 5612 5618 5624 5629 5633 5637 5641 5646 5649 5653 5655 5658 5660 5661 5663 5664 5665 5665 5665 5665 5665 5664 5662 5661 5659 5657 5655 5652 5649 5645 5642 5638 5634 5630 5626
5547 5552 5557 5562 5567 5573 5580 5587 5593 5600 5606 5612 5617 5622 5627 5632 5636 5639 5642 5645 5647 5649 5651 5652 5653 5654 5654 5654 5653 5652 5651 5649 5647 5645 5643 5640 5636 5633 5629 5625 5621 5616 5612
5528 5532 5536 5542 5547 5554 5560 5567 5574 5582 5588 5595 5601 5607 5612 5617 5621 5625 5629 5632 5635 5637 5639 5640 5641 5642 5642 5642 5642 5641 5639 5638 5635 5633 5630 5627 5624 5620 5616 5612 5607 5603 5598
5510 5513 5517 5523 5529 5535 5541 5548 5556 5563 5571 5578 5585 5591 5597 5602 5607 5611 5615 5619 5622 5625 5627 5628 5630 5630 5631 5631 5630 5629 5628 5626 5623 5621 5618 5615 5611 5607 5603 5598 5593 5588 5583